{"data":{"norad_id":67737,"epoch":"2026-09-19T09:34:04.966176Z","epoch_age_seconds":161582,"freshness":"FRESH","line1":"1 67737U 26026S   26262.39866859  .00013694  00000+0  42562-3 0  9992","line2":"2 67737  97.2857 314.2736 0000572 272.1654  87.9523 15.33452634 33812","mean_motion":15.33452634,"eccentricity":5.72e-5,"inclination_deg":97.2857,"raan_deg":314.2736,"arg_perigee_deg":272.1654,"mean_anomaly_deg":87.9523,"bstar":0.00042562,"rev_number":3381,"period_min":93.905737162795,"perigee_km":465.12900395256,"apogee_km":465.91191836612,"semimajor_km":6843.6574611593,"source":"CELESTRAK","updated_at":"2026-09-20T09:00:43.659776Z"}}